Regional Weather Roundup
Issued by NWS Jackson, KY

Home | Current Version | Previous Version | Graphics & Text | Print | Product List | Glossary On
Versions: 1 2 3 4 5 6 7 8 9 10 11 12 13 14 15 16 17 18 19 20 21 22 23 24 25 26 27 28
000
ASUS43 KJKL 111210
RWRJKL

EAST KENTUCKY HOURLY WEATHER ROUNDUP
NATIONAL WEATHER SERVICE JACKSON KY
700 AM EST MON DEC 11 2017

NOTE: "FAIR" INDICATES FEW OR NO CLOUDS BELOW 12,000 FEET WITH
NO SIGNIFICANT WEATHER AND/OR OBSTRUCTIONS TO VISIBILITY.

* THESE REPORTS ARE NOT UNDER NWS QUALITY CONTROL AND MAY NOT
  REPORT WEATHER SUCH AS PRECIPITATION AND FOG.

KYZ079-080-083-085-087-088-110-112-115-119-120-111300
...EASTERN KENTUCKY...

CITY           SKY/WX    TMP DP  RH WIND       PRES   REMARKS
JACKSON        CLEAR     32  21  64 CALM      30.09S
6HR MIN TEMP:  31; 6HR MAX TEMP:  36;

LONDON         CLEAR     25  20  81 CALM      30.12R
6HR MIN TEMP:  25; 6HR MAX TEMP:  34;

SOMERSET*      CLEAR     27  23  86 CALM      30.15S
MONTICELLO*    CLEAR     20  18  92 NW8       30.15S WCI  10
6HR MIN TEMP:  20; 6HR MAX TEMP:  37;

WILLIAMSBURG*  SUNNY     32  23  69 CALM      30.13R
MIDDLESBORO*   CLEAR     23  22  94 CALM      30.14F
6HR MIN TEMP:  23; 6HR MAX TEMP:  37;

HARLAN APT*    SUNNY     28  23  80 CALM      30.11S
PIKE CO APT*     N/A     34  22  62 SW3       30.09S
BIG SANDY APT* SUNNY     33  22  65 CALM      30.10F
6HR MIN TEMP:  33; 6HR MAX TEMP:  37;

MOREHEAD APT*  MOSUNNY   27  19  74 S3        30.12S
$$

KYZ035-036-041-042-044-050-067-078-099-111300
...CENTRAL KENTUCKY...

CITY           SKY/WX    TMP DP  RH WIND       PRES   REMARKS
MT STERLING*   CLEAR     23  19  86 SW5       30.12S WCI  17
FLEMING/MASON* CLEAR     25  20  82 SW5       30.12S WCI  19
DANVILLE*      CLEAR     27  21  80 S5        30.12S WCI  21
LEXINGTON      CLEAR     26  20  77 S5        30.10S WCI  20
6HR MIN TEMP:  25; 6HR MAX TEMP:  33;

FRANKFORT      CLEAR     23  17  78 CALM      30.09S
6HR MIN TEMP:  22; 6HR MAX TEMP:  32;

LOUISVILLE     CLEAR     28  23  81 S6        30.11S WCI  22
6HR MIN TEMP:  28; 6HR MAX TEMP:  35;

LEBANON*         N/A     30  21  69 S5        30.11F WCI  25
GLASGOW*       CLEAR     25  23  91 CALM      30.13S
BOWLING GREEN  CLEAR     25  22  88 CALM      30.13F
6HR MIN TEMP:  25; 6HR MAX TEMP:  35;

$$

KYZ091>093-OHZ055-061-077-WVZ005-015-034-035-042-111300
...SOUTHERN OHIO/WEST VIRGINIA...

CITY           SKY/WX    TMP DP  RH WIND       PRES   REMARKS
COVINGTON      CLEAR     20  18  92 S3        30.08S
COLUMBUS       CLOUDY    31  21  66 CALM      30.07S
DAYTON         CLOUDY    25  20  81 SW7       30.08R WCI  17
WILMINGTON     CLOUDY    24  22  91 SE3       30.07S
HUNTINGTON     CLEAR     30  20  66 S3        30.10F
CHARLESTON     CLEAR     32  20  61 SW5       30.09S WCI  27
PINEVILLE*       N/A     20  18  92 MISG      30.13R
BECKLEY        CLEAR     27  18  69 CALM      30.03R
BLUEFIELD      CLEAR     27  18  69 W9        30.03R WCI  18
LOGAN CO APT*    N/A     32  21  64 CALM      30.07S
$$

VAZ002-007-008-TNZ017-027-036-066-071-111300
...SOUTHWEST VIRGINIA/EAST TENNESSEE...

CITY           SKY/WX    TMP DP  RH WIND       PRES   REMARKS
WISE*          CLEAR     28  23  80 W5        30.07R WCI  23
JONESVILLE*      N/A     19  18  93 CALM      30.16S
ABINGDON*      CLEAR     28  21  74 W3        30.10R
BRISTOL        CLEAR     21  19  92 CALM      30.13R
MORRISTOWN*    SUNNY     32  23  69 SW5       30.13R WCI  27
SEVIERVILLE*   SUNNY     27  23  86 CALM      30.15R
KNOXVILLE      CLEAR     31  27  85 CALM      30.14F
LAFOLLETTE*    SUNNY     23  21  93 CALM      30.18S
OAK RIDGE      CLEAR     28  24  85 CALM      30.16F
CROSSVILLE     CLEAR     26  21  81 CALM      30.12S
NASHVILLE      CLEAR     33  25  72 S3        30.15S
$$

...KEY TO REMARKS...
VSB - VISIBILITY IN MILES
WCI - WIND CHILL INDEX
HX  - HEAT INDEX

$$




USA.gov is the U.S. government's official web portal to all federal, state and local government web resources and services.